This demonstration page uses our WeatherBlox Daily Observations layout. Learn more.

41.55636, -103.73856

Hourly Observations for November 30, 2020

Temp ( °F °C ) Dew Point ( °F °C ) Humidity (%) Winds ( mph kmh ) Pressure ( in mb ) Visibility ( mi km ) Precip ( " mm )
12:58 am 00:58 Clear 26 -3.4 14 -10.1 60 60 SSW 17 28 30.4 1030 10 16.0934 0 0
1:58 am 01:58 Clear 27 -2.9 13 -10.3 57 57 SSW 23 37 30.37 1029 10 16.0934 0 0
2:58 am 02:58 Clear 29 -1.5 13 -10.6 50 50 SW 21 33 30.33 1027 10 16.0934 0 0
3:58 am 03:58 Clear 29 -1.8 13 -10.7 51 51 SW 15 24 30.32 1027 10 16.0934 0 0
4:58 am 04:58 Clear 29 -1.5 11 -11.6 46 46 WSW 10 17 30.31 1026 10 16.0934 0 0
5:58 am 05:58 Clear 28 -2.5 8 -13.1 44 44 WSW 13 20 30.32 1027 10 16.0934 0 0
6:59 am 06:59 Clear 25 -3.8 9 -13 49 49 SSW 13 20 30.31 1026 10 16.0934 0 0
7:58 am 07:58 Sunny 31 -0.7 2 -16.5 29 29 SW 10 17 30.29 1026 10 16.0934 0 0
8:58 am 08:58 Sunny 40 4.5 -1 -18.6 17 17 W 10 17 30.23 1024 10 16.0934 0 0
9:58 am 09:58 Sunny 44 6.7 -2 -18.7 14 14 WNW 9 15 30.22 1023 10 16.0934 0 0
10:58 am 10:58 Sunny 50 9.8 -4 -20 10 10 WNW 21 33 30.15 1021 10 16.0934 0 0
11:58 am 11:58 Sunny 53 11.7 -5 -20.6 9 9 NW 24 39 30.1 1019 10 16.0934 0 0
12:58 pm 12:58 Sunny 55 12.9 -4 -20 8 8 NW 21 33 30.06 1018 10 16.0934 0 0
1:58 pm 13:58 Sunny 56 13.2 -3 -19.5 9 9 NW 21 33 30.02 1017 10 16.0934 0 0
2:58 pm 14:58 Sunny 55 13 -3 -19.3 9 9 NW 18 30 30 1016 10 16.0934 0 0
3:58 pm 15:58 Sunny 51 10.7 -2 -19 11 11 NW 15 24 30.01 1016 10 16.0934 0 0
4:58 pm 16:58 Clear 43 5.9 -4 -19.8 14 14 W 9 15 30.03 1017 10 16.0934 0 0
5:58 pm 17:58 Clear 32 0.1 -2 -19 22 22 W 12 19 30.06 1018 10 16.0934 0 0
6:58 pm 18:58 Clear 32 0.1 -3 -19.4 22 22 W 10 17 30.06 1018 10 16.0934 0 0
7:58 pm 19:58 Clear 33 0.6 -1 -18.2 23 23 W 12 19 30.03 1017 10 16.0934 0 0
8:58 pm 20:58 Clear 36 2.4 1 -17 23 23 W 15 24 29.98 1015 10 16.0934 0 0
9:58 pm 21:58 Clear 42 5.5 3 -16.3 19 19 WSW 16 26 29.92 1013 10 16.0934 0 0
10:58 pm 22:58 Clear 40 4.4 4 -15.5 22 22 W 18 30 29.92 1013 10 16.0934 0 0
11:58 pm 23:58 Clear 39 4 4 -15.3 23 23 WSW 17 28 29.9 1012 10 16.0934 0 0

Powered by AerisWeather